Weather History for KUIN - June, 2013

Change the Weather History Date:

Monday, June 24, 2013

  Actual Average Record
Temperature  
Mean Temperature 80 °F 74 °F  
Max Temperature 90 °F 84 °F 99 °F (1988)
Min Temperature 69 °F 65 °F 49 °F (1961)
Degree Days  
Heating Degree Days 0 0  
Month to date heating degree days 12 14  
Since 1 June heating degree days 12 14  
Since 1 July heating degree days 5638 5580  
Cooling Degree Days 15 10  
Month to date cooling degree days 186 168  
Year to date cooling degree days 298 254  
Since 1 June cooling degree days 186 168  
Growing Degree Days 29 (Base 50)    
Moisture  
Dew Point 69 °F    
Average Humidity 75    
Maximum Humidity 90    
Minimum Humidity 59    
Precipitation  
Precipitation 0.00 in 0.12 in 1.80 in (2015)
Month to date precipitation 1.45 3.25  
Year to date precipitation 26.69 17.34  
Sea Level Pressure  
Sea Level Pressure 29.95 in    
Wind  
Wind Speed 9 mph (South)    
Max Wind Speed 17 mph    
Max Gust Speed 24 mph    
Visibility 10 miles    
Events      
T = Trace of Precipitation, MM = Missing Value Source: NWS Daily Summary

Daily Weather History Graph

Daily Weather History Graph

Search for Another Location

Airport or City:

Trip Planner

Search our weather history database for the weather conditions in past years. The results will help you decide how hot, cold, wet, or windy it might be!

Date:

Astronomy

Jun. 24, 2013 Rise Set
Actual Time 5:37 AM CDT 8:37 PM CDT
Civil Twilight 5:04 AM CDT 9:10 PM CDT
Nautical Twilight 4:22 AM CDT 9:51 PM CDT
Astronomical Twilight 3:34 AM CDT 10:40 PM CDT
Moon 9:40 PM CDT (6/24) 7:04 AM CDT (6/24)
Length of Visible Light 16h 05m
Length of Day
15h 00m
Full, 98% of the Moon is Illuminated
Jun 24
Full
Jun 29
Last Quarter
Jul 8
New
Jul 15
First Quarter
Jul 22
Full

Hourly Weather History & Observations

Time (CDT) Temp. Heat Index Dew Point Humidity Pressure Visibility Wind Dir Wind Speed Gust Speed Precip Events Conditions
12:54 AM 69.1 °F - 64.9 °F 87% 29.97 in 10.0 mi South 10.4 mph - N/A   Clear
1:54 AM 69.1 °F - 64.9 °F 87% 29.97 in 10.0 mi South 8.1 mph - N/A   Clear
2:54 AM 69.1 °F - 64.9 °F 87% 29.96 in 10.0 mi South 6.9 mph - N/A   Clear
3:54 AM 70.0 °F - 66.0 °F 87% 29.97 in 10.0 mi South 6.9 mph - N/A   Clear
4:54 AM 71.1 °F - 66.0 °F 84% 29.98 in 10.0 mi South 4.6 mph - N/A   Clear
5:54 AM 70.0 °F - 66.0 °F 87% 29.99 in 8.0 mi South 6.9 mph - N/A   Clear
6:54 AM 72.0 °F - 66.9 °F 84% 30.01 in 8.0 mi South 5.8 mph - N/A   Clear
7:54 AM 73.9 °F - 69.1 °F 85% 30.02 in 9.0 mi South 6.9 mph - N/A   Clear
8:54 AM 77.0 °F - 70.0 °F 79% 30.04 in 9.0 mi SSW 8.1 mph - N/A   Clear
9:54 AM 80.1 °F 83.6 °F 71.1 °F 74% 30.01 in 10.0 mi South 9.2 mph - N/A   Clear
10:54 AM 82.9 °F 88.0 °F 72.0 °F 69% 30.01 in 10.0 mi SSW 13.8 mph - N/A   Clear
11:54 AM 84.9 °F 91.4 °F 73.0 °F 67% 29.99 in 10.0 mi South 11.5 mph - N/A   Clear
12:54 PM 87.1 °F 95.4 °F 73.9 °F 65% 29.98 in 10.0 mi SSW 10.4 mph - N/A   Clear
1:54 PM 87.1 °F 94.5 °F 73.0 °F 63% 29.96 in 10.0 mi SW 10.4 mph - N/A   Mostly Cloudy
2:54 PM 89.1 °F 97.0 °F 73.0 °F 59% 29.96 in 10.0 mi SSW 11.5 mph - N/A   Scattered Clouds
3:54 PM 88.0 °F 95.6 °F 73.0 °F 61% 29.94 in 10.0 mi SSW 11.5 mph - N/A   Scattered Clouds
4:54 PM 89.1 °F 97.0 °F 73.0 °F 59% 29.94 in 10.0 mi SSW 4.6 mph - N/A   Clear
5:17 PM 78.8 °F - 66.2 °F 65% 29.97 in 10.0 mi NNE 12.7 mph - N/A   Scattered Clouds
5:54 PM 79.0 °F - 64.9 °F 62% 29.93 in 10.0 mi ENE 8.1 mph - N/A   Clear
6:54 PM 79.0 °F - 66.0 °F 64% 29.93 in 10.0 mi ESE 6.9 mph - N/A   Scattered Clouds
7:54 PM 78.1 °F - 68.0 °F 71% 29.87 in 10.0 mi SE 11.5 mph - N/A   Clear
8:54 PM 81.0 °F 85.2 °F 72.0 °F 74% 29.83 in 10.0 mi South 11.5 mph - N/A   Clear
9:54 PM 82.0 °F 85.9 °F 70.0 °F 67% 29.84 in 10.0 mi South 11.5 mph 19.6 mph N/A   Clear
10:54 PM 81.0 °F 84.1 °F 69.1 °F 67% 29.88 in 10.0 mi South 10.4 mph - N/A   Clear
11:54 PM 80.1 °F 82.9 °F 69.1 °F 69% 29.90 in 10.0 mi South 10.4 mph - N/A   Clear